Time,TemperatureF,DewpointF,PressureIn,WindDirection,WindDirectionDegrees,WindSpeedMPH,WindSpeedGustMPH,Humidity,HourlyPrecipIn,Conditions,Clouds,dailyrainin,SoftwareType,DateUTC
2013-10-03 00:03:00,75.9,70.0,29.94,East,90,8.0,10.0,82,0.00,,,0.00,meteohub,2013-10-03 05:03:00,
2013-10-03 00:08:00,76.1,69.8,29.94,NE,45,8.0,11.0,81,0.00,,,0.00,meteohub,2013-10-03 05:08:00,
2013-10-03 00:13:00,75.9,70.0,29.95,NE,45,7.0,11.0,82,0.00,,,0.00,meteohub,2013-10-03 05:13:00,
2013-10-03 00:18:00,76.1,70.2,29.94,East,90,8.0,9.0,82,0.00,,,0.00,meteohub,2013-10-03 05:18:00,
2013-10-03 00:24:00,75.9,70.0,29.94,East,90,8.0,9.0,82,0.00,,,0.00,meteohub,2013-10-03 05:24:00,
2013-10-03 00:29:00,75.9,70.0,29.94,NE,45,10.0,10.0,82,0.00,,,0.00,meteohub,2013-10-03 05:29:00,
2013-10-03 00:34:00,75.9,70.0,29.94,East,90,11.0,11.0,82,0.00,,,0.00,meteohub,2013-10-03 05:34:00,
2013-10-03 00:39:00,76.1,70.2,29.94,NE,45,8.0,11.0,82,0.00,,,0.00,meteohub,2013-10-03 05:39:00,
2013-10-03 00:45:00,76.3,70.3,29.94,NE,45,9.0,11.0,82,0.00,,,0.00,meteohub,2013-10-03 05:45:00,
2013-10-03 00:50:00,76.1,70.2,29.94,NE,45,8.0,16.0,82,0.00,,,0.00,meteohub,2013-10-03 05:50:00,
2013-10-03 00:55:00,76.1,70.2,29.93,NE,45,9.0,16.0,82,0.00,,,0.00,meteohub,2013-10-03 05:55:00,
2013-10-03 01:00:00,76.3,70.3,29.94,NE,45,7.0,11.0,82,0.00,,,0.00,meteohub,2013-10-03 06:00:00,
2013-10-03 01:05:00,76.3,70.3,29.93,NE,45,7.0,11.0,82,0.00,,,0.00,meteohub,2013-10-03 06:05:00,
2013-10-03 01:11:00,75.9,70.3,29.93,NE,45,11.0,11.0,83,0.00,,,0.00,meteohub,2013-10-03 06:11:00,
2013-10-03 01:16:00,75.9,70.3,29.93,ENE,68,9.0,11.0,83,0.00,,,0.00,meteohub,2013-10-03 06:16:00,
2013-10-03 01:21:00,75.9,70.3,29.93,East,90,11.0,11.0,83,0.00,,,0.00,meteohub,2013-10-03 06:21:00,
2013-10-03 01:27:00,75.7,70.2,29.93,East,90,8.0,11.0,83,0.00,,,0.00,meteohub,2013-10-03 06:27:00,
2013-10-03 01:32:00,75.7,70.2,29.93,NE,45,10.0,11.0,83,0.00,,,0.00,meteohub,2013-10-03 06:32:00,
2013-10-03 01:37:00,75.7,70.2,29.93,East,90,8.0,11.0,83,0.00,,,0.00,meteohub,2013-10-03 06:37:00,
2013-10-03 01:42:00,75.7,70.2,29.93,ENE,68,10.0,11.0,83,0.00,,,0.00,meteohub,2013-10-03 06:42:00,
2013-10-03 01:47:00,75.7,70.5,29.93,East,90,8.0,11.0,84,0.00,,,0.00,meteohub,2013-10-03 06:47:00,
2013-10-03 01:53:00,75.6,70.3,29.93,East,90,10.0,11.0,84,0.00,,,0.00,meteohub,2013-10-03 06:53:00,
2013-10-03 01:58:00,75.4,70.2,29.93,NE,45,12.0,12.0,84,0.00,,,0.00,meteohub,2013-10-03 06:58:00,
2013-10-03 02:03:00,75.4,70.2,29.93,East,90,8.0,12.0,84,0.00,,,0.00,meteohub,2013-10-03 07:03:00,
2013-10-03 02:08:00,75.4,70.2,29.93,NE,45,8.0,12.0,84,0.00,,,0.00,meteohub,2013-10-03 07:08:00,
2013-10-03 02:14:00,75.4,70.2,29.92,NE,45,7.0,12.0,84,0.00,,,0.00,meteohub,2013-10-03 07:14:00,
2013-10-03 02:19:00,75.0,70.2,29.92,ENE,68,5.0,9.0,85,0.00,,,0.00,meteohub,2013-10-03 07:19:00,
2013-10-03 02:24:00,75.0,70.2,29.92,East,90,7.0,9.0,85,0.00,,,0.00,meteohub,2013-10-03 07:24:00,
2013-10-03 02:29:00,74.8,70.3,29.92,East,90,4.0,8.0,86,0.00,,,0.00,meteohub,2013-10-03 07:29:00,
2013-10-03 02:34:00,74.7,70.2,29.92,ENE,68,6.0,8.0,86,0.00,,,0.00,meteohub,2013-10-03 07:34:00,
2013-10-03 02:40:00,74.7,70.2,29.92,East,90,5.0,8.0,86,0.00,,,0.00,meteohub,2013-10-03 07:40:00,
2013-10-03 02:45:00,74.5,70.0,29.92,NE,45,5.0,8.0,86,0.00,,,0.00,meteohub,2013-10-03 07:45:00,
2013-10-03 02:50:00,74.5,70.3,29.92,NE,45,6.0,8.0,87,0.00,,,0.00,meteohub,2013-10-03 07:50:00,
2013-10-03 02:55:00,74.5,70.3,29.92,East,90,8.0,8.0,87,0.00,,,0.00,meteohub,2013-10-03 07:55:00,
2013-10-03 03:01:00,74.5,70.3,29.92,ENE,68,5.0,8.0,87,0.00,,,0.00,meteohub,2013-10-03 08:01:00,
2013-10-03 03:06:00,74.5,70.3,29.92,ENE,68,5.0,8.0,87,0.00,,,0.00,meteohub,2013-10-03 08:06:00,
2013-10-03 03:11:00,74.8,70.3,29.92,East,90,5.0,8.0,86,0.00,,,0.00,meteohub,2013-10-03 08:11:00,
2013-10-03 03:16:00,74.8,70.3,29.92,East,90,5.0,10.0,86,0.00,,,0.00,meteohub,2013-10-03 08:16:00,
2013-10-03 03:21:00,74.8,70.0,29.91,East,90,5.0,10.0,85,0.00,,,0.00,meteohub,2013-10-03 08:21:00,
2013-10-03 03:27:00,75.0,70.2,29.91,East,90,5.0,10.0,85,0.00,,,0.00,meteohub,2013-10-03 08:27:00,
2013-10-03 03:32:00,75.2,70.3,29.91,East,90,11.0,11.0,85,0.00,,,0.00,meteohub,2013-10-03 08:32:00,
2013-10-03 03:37:00,75.2,70.3,29.91,East,90,6.0,11.0,85,0.00,,,0.00,meteohub,2013-10-03 08:37:00,
2013-10-03 03:42:00,75.2,70.3,29.91,East,90,8.0,11.0,85,0.00,,,0.00,meteohub,2013-10-03 08:42:00,
2013-10-03 03:48:00,75.2,70.3,29.91,East,90,9.0,11.0,85,0.00,,,0.00,meteohub,2013-10-03 08:48:00,
2013-10-03 03:53:00,75.2,70.0,29.91,East,90,8.0,10.0,84,0.00,,,0.00,meteohub,2013-10-03 08:53:00,
2013-10-03 03:58:00,75.2,70.3,29.91,East,90,8.0,10.0,85,0.00,,,0.00,meteohub,2013-10-03 08:58:00,
2013-10-03 04:03:00,75.0,70.2,29.91,East,90,9.0,10.0,85,0.00,,,0.00,meteohub,2013-10-03 09:03:00,
2013-10-03 04:08:00,75.2,70.3,29.91,East,90,8.0,10.0,85,0.00,,,0.00,meteohub,2013-10-03 09:08:00,
2013-10-03 04:14:00,75.2,70.3,29.91,East,90,8.0,10.0,85,0.00,,,0.00,meteohub,2013-10-03 09:14:00,
2013-10-03 04:19:00,75.2,70.7,29.91,East,90,9.0,11.0,86,0.00,,,0.00,meteohub,2013-10-03 09:19:00,
2013-10-03 04:24:00,75.0,70.5,29.91,ENE,68,15.0,15.0,86,0.00,,,0.00,meteohub,2013-10-03 09:24:00,
2013-10-03 04:29:00,74.8,70.3,29.91,East,90,6.0,12.0,86,0.00,,,0.00,meteohub,2013-10-03 09:29:00,
2013-10-03 04:35:00,74.8,70.7,29.91,East,90,6.0,15.0,87,0.00,,,0.00,meteohub,2013-10-03 09:35:00,
2013-10-03 04:40:00,74.5,70.3,29.91,East,90,7.0,11.0,87,0.00,,,0.00,meteohub,2013-10-03 09:40:00,
2013-10-03 04:45:00,74.5,70.7,29.91,East,90,8.0,8.0,88,0.00,,,0.00,meteohub,2013-10-03 09:45:00,
2013-10-03 04:50:00,74.7,70.5,29.91,East,90,9.0,9.0,87,0.00,,,0.00,meteohub,2013-10-03 09:50:00,
2013-10-03 04:55:00,74.7,70.9,29.91,East,90,9.0,10.0,88,0.00,,,0.00,meteohub,2013-10-03 09:55:00,
2013-10-03 05:01:00,74.8,70.7,29.91,East,90,8.0,14.0,87,0.00,,,0.00,meteohub,2013-10-03 10:01:00,
2013-10-03 05:06:00,74.8,70.7,29.91,East,90,8.0,15.0,87,0.00,,,0.00,meteohub,2013-10-03 10:06:00,
2013-10-03 05:11:00,74.7,70.5,29.91,East,90,8.0,15.0,87,0.00,,,0.00,meteohub,2013-10-03 10:11:00,
2013-10-03 05:16:00,74.7,70.5,29.92,East,90,10.0,10.0,87,0.00,,,0.00,meteohub,2013-10-03 10:16:00,
2013-10-03 05:21:00,74.7,70.9,29.91,East,90,12.0,12.0,88,0.00,,,0.00,meteohub,2013-10-03 10:21:00,
2013-10-03 05:27:00,74.7,70.9,29.92,East,90,8.0,12.0,88,0.00,,,0.00,meteohub,2013-10-03 10:27:00,
2013-10-03 05:32:00,74.7,70.9,29.92,East,90,11.0,12.0,88,0.00,,,0.00,meteohub,2013-10-03 10:32:00,
2013-10-03 05:37:00,74.7,70.9,29.92,East,90,12.0,12.0,88,0.00,,,0.00,meteohub,2013-10-03 10:37:00,
2013-10-03 05:42:00,74.5,70.7,29.92,NE,45,10.0,12.0,88,0.00,,,0.00,meteohub,2013-10-03 10:42:00,
2013-10-03 05:48:00,74.5,70.7,29.92,East,90,9.0,12.0,88,0.00,,,0.00,meteohub,2013-10-03 10:48:00,
2013-10-03 05:53:00,74.3,70.9,29.92,East,90,11.0,12.0,89,0.00,,,0.00,meteohub,2013-10-03 10:53:00,
2013-10-03 05:58:00,74.3,70.9,29.92,East,90,7.0,12.0,89,0.00,,,0.00,meteohub,2013-10-03 10:58:00,
2013-10-03 06:03:00,74.1,70.7,29.92,ENE,68,7.0,12.0,89,0.00,,,0.00,meteohub,2013-10-03 11:03:00,
2013-10-03 06:08:00,74.1,70.7,29.92,ESE,113,11.0,11.0,89,0.00,,,0.00,meteohub,2013-10-03 11:08:00,
2013-10-03 06:14:00,74.3,70.9,29.92,East,90,9.0,11.0,89,0.00,,,0.00,meteohub,2013-10-03 11:14:00,
2013-10-03 06:19:00,74.3,70.9,29.93,SE,135,8.0,15.0,89,0.00,,,0.00,meteohub,2013-10-03 11:19:00,
2013-10-03 06:24:00,74.3,71.2,29.93,SE,135,7.0,15.0,90,0.00,,,0.00,meteohub,2013-10-03 11:24:00,
2013-10-03 06:29:00,74.3,71.2,29.93,ENE,68,10.0,15.0,90,0.00,,,0.00,meteohub,2013-10-03 11:29:00,
2013-10-03 06:35:00,74.1,71.1,29.93,East,90,8.0,13.0,90,0.00,,,0.00,meteohub,2013-10-03 11:35:00,
2013-10-03 06:40:00,74.1,71.1,29.93,East,90,8.0,13.0,90,0.00,,,0.00,meteohub,2013-10-03 11:40:00,
2013-10-03 06:45:00,74.1,71.1,29.93,East,90,5.0,13.0,90,0.00,,,0.00,meteohub,2013-10-03 11:45:00,
2013-10-03 06:50:00,73.8,70.7,29.93,East,90,10.0,13.0,90,0.00,,,0.00,meteohub,2013-10-03 11:50:00,
2013-10-03 06:55:00,73.9,70.9,29.93,ENE,68,8.0,11.0,90,0.00,,,0.00,meteohub,2013-10-03 11:55:00,
2013-10-03 07:01:00,73.8,70.7,29.93,NE,45,8.0,12.0,90,0.00,,,0.00,meteohub,2013-10-03 12:01:00,
2013-10-03 07:06:00,73.8,70.7,29.93,NE,45,8.0,12.0,90,0.00,,,0.00,meteohub,2013-10-03 12:06:00,
2013-10-03 07:11:00,73.6,70.7,29.93,East,90,9.0,12.0,91,0.00,,,0.00,meteohub,2013-10-03 12:11:00,
2013-10-03 07:17:00,73.4,70.5,29.93,East,90,10.0,10.0,91,0.00,,,0.00,meteohub,2013-10-03 12:17:00,
2013-10-03 07:22:00,73.6,70.5,29.93,East,90,8.0,11.0,90,0.00,,,0.00,meteohub,2013-10-03 12:22:00,
2013-10-03 07:27:00,73.4,70.3,29.93,NE,45,8.0,11.0,90,0.00,,,0.00,meteohub,2013-10-03 12:27:00,
2013-10-03 07:32:00,73.4,70.3,29.92,NE,45,7.0,11.0,90,0.00,,,0.00,meteohub,2013-10-03 12:32:00,
2013-10-03 07:37:00,73.8,70.3,29.93,NE,45,9.0,11.0,89,0.00,,,0.00,meteohub,2013-10-03 12:37:00,
2013-10-03 07:43:00,74.3,70.5,29.93,East,90,10.0,11.0,88,0.00,,,0.00,meteohub,2013-10-03 12:43:00,
2013-10-03 07:48:00,74.5,70.3,29.94,East,90,8.0,11.0,87,0.00,,,0.00,meteohub,2013-10-03 12:48:00,
2013-10-03 07:53:00,74.8,70.3,29.93,East,90,12.0,12.0,86,0.00,,,0.00,meteohub,2013-10-03 12:53:00,
2013-10-03 07:58:00,75.2,70.3,29.93,East,90,7.0,12.0,85,0.00,,,0.00,meteohub,2013-10-03 12:58:00,
2013-10-03 08:04:00,75.2,70.3,29.93,East,90,9.0,12.0,85,0.00,,,0.00,meteohub,2013-10-03 13:04:00,
2013-10-03 08:09:00,75.7,70.9,29.93,East,90,11.0,12.0,85,0.00,,,0.00,meteohub,2013-10-03 13:09:00,
2013-10-03 08:14:00,75.6,70.7,29.94,East,90,11.0,15.0,85,0.00,,,0.00,meteohub,2013-10-03 13:14:00,
2013-10-03 08:19:00,75.2,70.7,29.94,East,90,13.0,15.0,86,0.00,,,0.00,meteohub,2013-10-03 13:19:00,
2013-10-03 08:25:00,75.0,70.9,29.94,East,90,5.0,15.0,87,0.00,,,0.00,meteohub,2013-10-03 13:25:00,
2013-10-03 08:30:00,74.8,71.1,29.94,East,90,10.0,15.0,88,0.00,,,0.00,meteohub,2013-10-03 13:30:00,
2013-10-03 08:35:00,74.8,71.1,29.94,SE,135,8.0,15.0,88,0.00,,,0.00,meteohub,2013-10-03 13:35:00,
2013-10-03 08:40:00,74.8,71.1,29.94,SE,135,11.0,13.0,88,0.00,,,0.00,meteohub,2013-10-03 13:40:00,
2013-10-03 08:45:00,74.7,71.2,29.95,East,90,12.0,15.0,89,0.00,,,0.00,meteohub,2013-10-03 13:45:00,
2013-10-03 08:51:00,74.8,71.4,29.95,East,90,8.0,15.0,89,0.00,,,0.00,meteohub,2013-10-03 13:51:00,
2013-10-03 08:56:00,74.8,71.4,29.95,East,90,10.0,14.0,89,0.00,,,0.00,meteohub,2013-10-03 13:56:00,
2013-10-03 09:01:00,74.8,71.4,29.96,East,90,15.0,15.0,89,0.00,,,0.00,meteohub,2013-10-03 14:01:00,
2013-10-03 09:06:00,74.8,71.4,29.96,East,90,15.0,15.0,89,0.00,,,0.00,meteohub,2013-10-03 14:06:00,
2013-10-03 09:12:00,75.0,72.0,29.95,East,90,8.0,15.0,90,0.00,,,0.00,meteohub,2013-10-03 14:12:00,
2013-10-03 09:17:00,75.0,72.0,29.95,East,90,12.0,15.0,90,0.00,,,0.00,meteohub,2013-10-03 14:17:00,
2013-10-03 09:22:00,75.2,72.1,29.95,East,90,11.0,15.0,90,0.00,,,0.00,meteohub,2013-10-03 14:22:00,
2013-10-03 09:27:00,75.4,72.3,29.95,East,90,8.0,15.0,90,0.00,,,0.00,meteohub,2013-10-03 14:27:00,
2013-10-03 09:32:00,75.4,72.0,29.95,NE,45,14.0,16.0,89,0.00,,,0.00,meteohub,2013-10-03 14:32:00,
2013-10-03 09:38:00,75.4,72.0,29.95,SE,135,11.0,21.0,89,0.00,,,0.00,meteohub,2013-10-03 14:38:00,
2013-10-03 09:43:00,75.6,72.1,29.95,East,90,14.0,21.0,89,0.00,,,0.00,meteohub,2013-10-03 14:43:00,
2013-10-03 09:48:00,75.7,72.3,29.95,East,90,11.0,21.0,89,0.00,,,0.00,meteohub,2013-10-03 14:48:00,
2013-10-03 09:53:00,75.7,72.3,29.95,East,90,10.0,14.0,89,0.00,,,0.00,meteohub,2013-10-03 14:53:00,
2013-10-03 09:59:00,75.9,72.5,29.95,East,90,15.0,15.0,89,0.00,,,0.00,meteohub,2013-10-03 14:59:00,
2013-10-03 10:04:00,75.9,72.1,29.95,East,90,18.0,18.0,88,0.00,,,0.00,meteohub,2013-10-03 15:04:00,
2013-10-03 10:09:00,76.3,72.5,29.95,East,90,10.0,18.0,88,0.00,,,0.00,meteohub,2013-10-03 15:09:00,
2013-10-03 10:14:00,76.5,72.7,29.95,East,90,11.0,18.0,88,0.00,,,0.00,meteohub,2013-10-03 15:14:00,
2013-10-03 10:19:00,76.5,72.7,29.95,East,90,10.0,18.0,88,0.00,,,0.00,meteohub,2013-10-03 15:19:00,
2013-10-03 10:25:00,76.5,72.3,29.95,East,90,10.0,18.0,87,0.00,,,0.00,meteohub,2013-10-03 15:25:00,
2013-10-03 10:30:00,76.8,73.0,29.95,SE,135,8.0,14.0,88,0.00,,,0.00,meteohub,2013-10-03 15:30:00,
2013-10-03 10:35:00,77.0,72.9,29.96,East,90,11.0,14.0,87,0.00,,,0.00,meteohub,2013-10-03 15:35:00,
2013-10-03 10:40:00,77.2,72.7,29.94,ENE,68,8.0,11.0,86,0.00,,,0.00,meteohub,2013-10-03 15:40:00,
2013-10-03 10:46:00,77.5,73.0,29.94,East,90,8.0,11.0,86,0.00,,,0.00,meteohub,2013-10-03 15:46:00,
2013-10-03 10:51:00,77.5,73.0,29.95,SE,135,9.0,15.0,86,0.00,,,0.00,meteohub,2013-10-03 15:51:00,
2013-10-03 10:56:00,77.7,73.2,29.95,East,90,8.0,15.0,86,0.00,,,0.00,meteohub,2013-10-03 15:56:00,
2013-10-03 11:01:00,77.9,72.7,29.95,East,90,11.0,15.0,84,0.00,,,0.00,meteohub,2013-10-03 16:01:00,
2013-10-03 11:07:00,77.9,72.7,29.95,East,90,11.0,13.0,84,0.00,,,0.00,meteohub,2013-10-03 16:07:00,
2013-10-03 11:12:00,78.3,72.7,29.95,SE,135,8.0,13.0,83,0.00,,,0.00,meteohub,2013-10-03 16:12:00,
2013-10-03 11:17:00,78.4,72.9,29.94,NE,45,9.0,11.0,83,0.00,,,0.00,meteohub,2013-10-03 16:17:00,
2013-10-03 11:22:00,78.8,72.9,29.94,East,90,10.0,11.0,82,0.00,,,0.00,meteohub,2013-10-03 16:22:00,
2013-10-03 11:27:00,79.0,73.0,29.94,SE,135,14.0,14.0,82,0.00,,,0.00,meteohub,2013-10-03 16:27:00,
2013-10-03 11:33:00,79.9,73.2,29.94,East,90,10.0,15.0,80,0.00,,,0.00,meteohub,2013-10-03 16:33:00,
2013-10-03 11:38:00,79.9,73.2,29.94,ENE,68,11.0,16.0,80,0.00,,,0.00,meteohub,2013-10-03 16:38:00,
2013-10-03 11:43:00,81.0,73.8,29.93,East,90,15.0,16.0,79,0.00,,,0.00,meteohub,2013-10-03 16:43:00,
2013-10-03 11:48:00,81.1,73.6,29.93,East,90,11.0,17.0,78,0.00,,,0.00,meteohub,2013-10-03 16:48:00,
2013-10-03 11:54:00,81.7,73.0,29.92,East,90,20.0,20.0,75,0.00,,,0.00,meteohub,2013-10-03 16:54:00,
2013-10-03 11:59:00,81.7,73.4,29.93,SE,135,14.0,17.0,76,0.00,,,0.00,meteohub,2013-10-03 16:59:00,
2013-10-03 12:04:00,81.9,73.2,29.92,East,90,22.0,22.0,75,0.00,,,0.00,meteohub,2013-10-03 17:04:00,
2013-10-03 12:09:00,82.0,73.4,29.92,East,90,12.0,22.0,75,0.00,,,0.00,meteohub,2013-10-03 17:09:00,
2013-10-03 12:14:00,82.8,73.2,29.92,East,90,14.0,22.0,73,0.00,,,0.00,meteohub,2013-10-03 17:14:00,
2013-10-03 12:20:00,82.8,73.2,29.92,East,90,14.0,22.0,73,0.00,,,0.00,meteohub,2013-10-03 17:20:00,
2013-10-03 12:25:00,83.1,73.2,29.92,East,90,10.0,19.0,72,0.00,,,0.00,meteohub,2013-10-03 17:25:00,
2013-10-03 12:30:00,83.5,73.6,29.91,NE,45,12.0,19.0,72,0.00,,,0.00,meteohub,2013-10-03 17:30:00,
2013-10-03 12:35:00,84.2,73.4,29.91,SE,135,11.0,19.0,70,0.00,,,0.00,meteohub,2013-10-03 17:35:00,
2013-10-03 12:40:00,84.6,73.8,29.92,NE,45,12.0,17.0,70,0.00,,,0.00,meteohub,2013-10-03 17:40:00,
2013-10-03 12:46:00,83.8,73.4,29.91,East,90,11.0,19.0,71,0.00,,,0.00,meteohub,2013-10-03 17:46:00,
2013-10-03 12:51:00,84.4,73.0,29.91,East,90,15.0,19.0,69,0.00,,,0.00,meteohub,2013-10-03 17:51:00,
2013-10-03 12:56:00,83.8,73.4,29.91,ENE,68,11.0,19.0,71,0.00,,,0.00,meteohub,2013-10-03 17:56:00,
2013-10-03 13:01:00,85.1,74.1,29.91,East,90,15.0,15.0,70,0.00,,,0.00,meteohub,2013-10-03 18:01:00,
2013-10-03 13:07:00,85.1,74.1,29.90,East,90,15.0,15.0,70,0.00,,,0.00,meteohub,2013-10-03 18:07:00,
2013-10-03 13:12:00,84.6,73.8,29.90,NE,45,8.0,17.0,70,0.00,,,0.00,meteohub,2013-10-03 18:12:00,
2013-10-03 13:17:00,86.0,73.8,29.89,East,90,17.0,17.0,67,0.00,,,0.00,meteohub,2013-10-03 18:17:00,
2013-10-03 13:22:00,85.8,73.6,29.90,NE,45,11.0,18.0,67,0.00,,,0.00,meteohub,2013-10-03 18:22:00,
2013-10-03 13:27:00,85.6,73.4,29.89,East,90,15.0,18.0,67,0.00,,,0.00,meteohub,2013-10-03 18:27:00,
2013-10-03 13:33:00,84.6,72.3,29.89,East,90,21.0,21.0,67,0.00,,,0.00,meteohub,2013-10-03 18:33:00,
2013-10-03 13:38:00,84.6,72.9,29.89,East,90,13.0,21.0,68,0.00,,,0.00,meteohub,2013-10-03 18:38:00,
2013-10-03 13:43:00,84.9,72.7,29.88,SE,135,16.0,21.0,67,0.00,,,0.00,meteohub,2013-10-03 18:43:00,
2013-10-03 13:48:00,84.2,72.9,29.88,East,90,10.0,22.0,69,0.00,,,0.00,meteohub,2013-10-03 18:48:00,
2013-10-03 13:54:00,84.2,72.5,29.88,East,90,15.0,22.0,68,0.00,,,0.00,meteohub,2013-10-03 18:54:00,
2013-10-03 13:59:00,83.8,72.1,29.88,NE,45,20.0,22.0,68,0.00,,,0.00,meteohub,2013-10-03 18:59:00,
2013-10-03 14:04:00,83.8,72.1,29.88,East,90,14.0,20.0,68,0.00,,,0.00,meteohub,2013-10-03 19:04:00,
2013-10-03 14:09:00,86.2,73.9,29.88,ENE,68,14.0,20.0,67,0.00,,,0.00,meteohub,2013-10-03 19:09:00,
2013-10-03 14:14:00,86.2,73.9,29.87,East,90,14.0,20.0,67,0.00,,,0.00,meteohub,2013-10-03 19:14:00,
2013-10-03 14:20:00,85.5,72.9,29.87,NE,45,12.0,17.0,66,0.00,,,0.00,meteohub,2013-10-03 19:20:00,
2013-10-03 14:25:00,85.5,72.3,29.87,SE,135,12.0,16.0,65,0.00,,,0.00,meteohub,2013-10-03 19:25:00,
2013-10-03 14:30:00,86.5,72.9,29.86,NE,45,11.0,16.0,64,0.00,,,0.00,meteohub,2013-10-03 19:30:00,
2013-10-03 14:35:00,87.8,74.1,29.86,NE,45,9.0,16.0,64,0.00,,,0.00,meteohub,2013-10-03 19:35:00,
2013-10-03 14:41:00,88.3,73.2,29.85,East,90,12.0,15.0,61,0.00,,,0.00,meteohub,2013-10-03 19:41:00,
2013-10-03 14:46:00,88.2,73.4,29.85,East,90,13.0,15.0,62,0.00,,,0.00,meteohub,2013-10-03 19:46:00,
2013-10-03 14:51:00,88.0,72.9,29.85,SE,135,11.0,15.0,61,0.00,,,0.00,meteohub,2013-10-03 19:51:00,
2013-10-03 14:56:00,87.6,72.0,29.85,East,90,15.0,17.0,60,0.00,,,0.00,meteohub,2013-10-03 19:56:00,
2013-10-03 15:01:00,87.1,72.0,29.85,East,90,11.0,17.0,61,0.00,,,0.00,meteohub,2013-10-03 20:01:00,
2013-10-03 15:07:00,87.1,72.0,29.85,East,90,11.0,17.0,61,0.00,,,0.00,meteohub,2013-10-03 20:07:00,
2013-10-03 15:12:00,87.4,71.8,29.84,East,90,18.0,21.0,60,0.00,,,0.00,meteohub,2013-10-03 20:12:00,
2013-10-03 15:17:00,88.2,72.0,29.84,SE,135,19.0,21.0,59,0.00,,,0.00,meteohub,2013-10-03 20:17:00,
2013-10-03 15:22:00,87.6,72.0,29.84,ENE,68,16.0,21.0,60,0.00,,,0.00,meteohub,2013-10-03 20:22:00,
2013-10-03 15:28:00,88.5,72.3,29.84,NE,45,18.0,22.0,59,0.00,,,0.00,meteohub,2013-10-03 20:28:00,
2013-10-03 15:33:00,88.7,73.6,29.84,ESE,113,12.0,22.0,61,0.00,,,0.00,meteohub,2013-10-03 20:33:00,
2013-10-03 15:38:00,88.3,71.6,29.84,East,90,21.0,22.0,58,0.00,,,0.00,meteohub,2013-10-03 20:38:00,
2013-10-03 15:43:00,88.3,73.2,29.84,East,90,12.0,23.0,61,0.00,,,0.00,meteohub,2013-10-03 20:43:00,
2013-10-03 15:48:00,88.7,73.6,29.84,East,90,11.0,23.0,61,0.00,,,0.00,meteohub,2013-10-03 20:48:00,
2013-10-03 15:54:00,88.0,72.9,29.84,East,90,15.0,23.0,61,0.00,,,0.00,meteohub,2013-10-03 20:54:00,
2013-10-03 15:59:00,87.6,73.0,29.84,NE,45,15.0,17.0,62,0.00,,,0.00,meteohub,2013-10-03 20:59:00,
2013-10-03 16:04:00,87.6,72.5,29.84,NE,45,17.0,20.0,61,0.00,,,0.00,meteohub,2013-10-03 21:04:00,
2013-10-03 16:09:00,88.2,73.0,29.83,NE,45,13.0,20.0,61,0.00,,,0.00,meteohub,2013-10-03 21:09:00,
2013-10-03 16:15:00,88.2,72.5,29.83,East,90,17.0,20.0,60,0.00,,,0.00,meteohub,2013-10-03 21:15:00,
2013-10-03 16:20:00,87.4,72.3,29.83,NNE,23,17.0,23.0,61,0.00,,,0.00,meteohub,2013-10-03 21:20:00,
2013-10-03 16:25:00,87.8,71.6,29.83,ENE,68,15.0,23.0,59,0.00,,,0.00,meteohub,2013-10-03 21:25:00,
2013-10-03 16:30:00,88.2,72.5,29.83,East,90,10.0,21.0,60,0.00,,,0.00,meteohub,2013-10-03 21:30:00,
2013-10-03 16:35:00,88.7,72.5,29.83,East,90,15.0,21.0,59,0.00,,,0.00,meteohub,2013-10-03 21:35:00,
2013-10-03 16:41:00,88.5,72.9,29.83,East,90,15.0,18.0,60,0.00,,,0.00,meteohub,2013-10-03 21:41:00,
2013-10-03 16:46:00,88.9,73.2,29.83,East,90,8.0,20.0,60,0.00,,,0.00,meteohub,2013-10-03 21:46:00,
2013-10-03 16:51:00,88.5,71.8,29.83,East,90,19.0,20.0,58,0.00,,,0.00,meteohub,2013-10-03 21:51:00,
2013-10-03 16:56:00,87.8,71.2,29.82,East,90,15.0,19.0,58,0.00,,,0.00,meteohub,2013-10-03 21:56:00,
2013-10-03 17:02:00,87.4,71.4,29.82,NE,45,17.0,20.0,59,0.00,,,0.00,meteohub,2013-10-03 22:02:00,
2013-10-03 17:07:00,88.3,72.7,29.82,ENE,68,10.0,21.0,60,0.00,,,0.00,meteohub,2013-10-03 22:07:00,
2013-10-03 17:12:00,88.3,71.2,29.82,East,90,17.0,21.0,57,0.00,,,0.00,meteohub,2013-10-03 22:12:00,
2013-10-03 17:17:00,88.0,70.9,29.82,NE,45,18.0,23.0,57,0.00,,,0.00,meteohub,2013-10-03 22:17:00,
2013-10-03 17:23:00,87.6,70.5,29.82,NE,45,15.0,23.0,57,0.00,,,0.00,meteohub,2013-10-03 22:23:00,
2013-10-03 17:28:00,88.0,71.4,29.82,SE,135,17.0,23.0,58,0.00,,,0.00,meteohub,2013-10-03 22:28:00,
2013-10-03 17:33:00,87.6,71.1,29.82,East,90,17.0,20.0,58,0.00,,,0.00,meteohub,2013-10-03 22:33:00,
2013-10-03 17:38:00,87.3,70.7,29.81,NE,45,19.0,20.0,58,0.00,,,0.00,meteohub,2013-10-03 22:38:00,
2013-10-03 17:43:00,87.1,71.1,29.81,East,90,14.0,19.0,59,0.00,,,0.00,meteohub,2013-10-03 22:43:00,
2013-10-03 17:49:00,87.3,71.2,29.82,East,90,11.0,20.0,59,0.00,,,0.00,meteohub,2013-10-03 22:49:00,
2013-10-03 17:54:00,86.9,70.9,29.82,East,90,15.0,20.0,59,0.00,,,0.00,meteohub,2013-10-03 22:54:00,
2013-10-03 17:59:00,86.2,70.7,29.82,NE,45,11.0,20.0,60,0.00,,,0.00,meteohub,2013-10-03 22:59:00,
2013-10-03 18:04:00,86.2,70.7,29.82,NE,45,9.0,17.0,60,0.00,,,0.00,meteohub,2013-10-03 23:04:00,
2013-10-03 18:10:00,86.4,71.2,29.82,East,90,12.0,17.0,61,0.00,,,0.00,meteohub,2013-10-03 23:10:00,
2013-10-03 18:15:00,86.2,71.1,29.82,East,90,14.0,18.0,61,0.00,,,0.00,meteohub,2013-10-03 23:15:00,
2013-10-03 18:20:00,85.8,70.9,29.82,East,90,11.0,18.0,61,0.00,,,0.00,meteohub,2013-10-03 23:20:00,
2013-10-03 18:25:00,85.3,70.3,29.82,East,90,11.0,17.0,61,0.00,,,0.00,meteohub,2013-10-03 23:25:00,
2013-10-03 18:31:00,85.3,70.7,29.82,NE,45,9.0,16.0,62,0.00,,,0.00,meteohub,2013-10-03 23:31:00,
2013-10-03 18:36:00,85.1,70.2,29.82,ENE,68,12.0,21.0,61,0.00,,,0.00,meteohub,2013-10-03 23:36:00,
2013-10-03 18:41:00,84.6,70.2,29.82,NE,45,9.0,21.0,62,0.00,,,0.00,meteohub,2013-10-03 23:41:00,
2013-10-03 18:46:00,83.5,70.5,29.83,NE,45,7.0,21.0,65,0.00,,,0.00,meteohub,2013-10-03 23:46:00,
2013-10-03 18:51:00,82.9,70.3,29.82,NE,45,11.0,15.0,66,0.00,,,0.00,meteohub,2013-10-03 23:51:00,
2013-10-03 18:57:00,82.6,70.9,29.82,East,90,10.0,11.0,68,0.00,,,0.00,meteohub,2013-10-03 23:57:00,
2013-10-03 19:02:00,82.6,70.9,29.83,NE,45,9.0,14.0,68,0.00,,,0.00,meteohub,2013-10-04 00:02:00,
2013-10-03 19:07:00,82.4,70.7,29.82,ENE,68,11.0,14.0,68,0.00,,,0.00,meteohub,2013-10-04 00:07:00,
2013-10-03 19:12:00,82.2,71.1,29.82,East,90,9.0,14.0,69,0.00,,,0.00,meteohub,2013-10-04 00:12:00,
2013-10-03 19:18:00,81.9,70.7,29.83,ENE,68,11.0,12.0,69,0.00,,,0.00,meteohub,2013-10-04 00:18:00,
2013-10-03 19:23:00,81.7,70.9,29.83,East,90,8.0,12.0,70,0.00,,,0.00,meteohub,2013-10-04 00:23:00,
2013-10-03 19:28:00,81.7,70.9,29.83,NE,45,11.0,14.0,70,0.00,,,0.00,meteohub,2013-10-04 00:28:00,
2013-10-03 19:33:00,81.3,71.1,29.82,NE,45,11.0,14.0,71,0.00,,,0.00,meteohub,2013-10-04 00:33:00,
2013-10-03 19:39:00,81.1,71.2,29.83,NE,45,8.0,14.0,72,0.00,,,0.00,meteohub,2013-10-04 00:39:00,
2013-10-03 19:44:00,80.6,71.1,29.82,NE,45,8.0,11.0,73,0.00,,,0.00,meteohub,2013-10-04 00:44:00,
2013-10-03 19:49:00,80.4,71.4,29.83,NE,45,10.0,11.0,74,0.00,,,0.00,meteohub,2013-10-04 00:49:00,
2013-10-03 19:54:00,80.4,71.8,29.83,East,90,8.0,11.0,75,0.00,,,0.00,meteohub,2013-10-04 00:54:00,
2013-10-03 20:00:00,80.2,71.6,29.83,NE,45,8.0,15.0,75,0.00,,,0.00,meteohub,2013-10-04 01:00:00,
2013-10-03 20:05:00,80.2,71.6,29.83,NE,45,8.0,15.0,75,0.00,,,0.00,meteohub,2013-10-04 01:05:00,
2013-10-03 20:10:00,80.1,71.8,29.83,SE,135,10.0,12.0,76,0.00,,,0.00,meteohub,2013-10-04 01:10:00,
2013-10-03 20:15:00,80.1,71.8,29.83,ENE,68,12.0,15.0,76,0.00,,,0.00,meteohub,2013-10-04 01:15:00,
2013-10-03 20:21:00,79.9,71.6,29.83,ENE,68,12.0,15.0,76,0.00,,,0.00,meteohub,2013-10-04 01:21:00,
2013-10-03 20:26:00,79.7,71.4,29.82,East,90,11.0,15.0,76,0.00,,,0.00,meteohub,2013-10-04 01:26:00,
2013-10-03 20:31:00,79.5,71.2,29.83,East,90,11.0,14.0,76,0.00,,,0.00,meteohub,2013-10-04 01:31:00,
2013-10-03 20:36:00,79.5,71.6,29.84,ENE,68,7.0,14.0,77,0.00,,,0.00,meteohub,2013-10-04 01:36:00,
2013-10-03 20:42:00,79.5,71.6,29.84,ENE,68,8.0,14.0,77,0.00,,,0.00,meteohub,2013-10-04 01:42:00,
2013-10-03 20:47:00,79.3,72.0,29.84,NE,45,8.0,15.0,78,0.00,,,0.00,meteohub,2013-10-04 01:47:00,
2013-10-03 20:52:00,79.3,72.0,29.85,East,90,7.0,15.0,78,0.00,,,0.00,meteohub,2013-10-04 01:52:00,
2013-10-03 20:58:00,79.2,71.8,29.86,East,90,10.0,15.0,78,0.00,,,0.00,meteohub,2013-10-04 01:58:00,
2013-10-03 21:03:00,79.2,71.8,29.85,East,90,11.0,14.0,78,0.00,,,0.00,meteohub,2013-10-04 02:03:00,
2013-10-03 21:08:00,79.0,72.0,29.85,ENE,68,14.0,14.0,79,0.00,,,0.00,meteohub,2013-10-04 02:08:00,
2013-10-03 21:13:00,79.0,72.3,29.85,NE,45,11.0,14.0,80,0.00,,,0.00,meteohub,2013-10-04 02:13:00,
2013-10-03 21:19:00,78.8,72.1,29.86,East,90,10.0,14.0,80,0.00,,,0.00,meteohub,2013-10-04 02:19:00,
2013-10-03 21:24:00,78.6,72.0,29.86,East,90,11.0,14.0,80,0.00,,,0.00,meteohub,2013-10-04 02:24:00,
2013-10-03 21:29:00,78.6,72.0,29.86,ENE,68,15.0,15.0,80,0.00,,,0.00,meteohub,2013-10-04 02:29:00,
2013-10-03 21:34:00,78.6,72.0,29.86,NE,45,13.0,16.0,80,0.00,,,0.00,meteohub,2013-10-04 02:34:00,
2013-10-03 21:40:00,78.6,72.3,29.86,ENE,68,10.0,16.0,81,0.00,,,0.00,meteohub,2013-10-04 02:40:00,
2013-10-03 21:45:00,78.4,72.1,29.86,East,90,10.0,13.0,81,0.00,,,0.00,meteohub,2013-10-04 02:45:00,
2013-10-03 21:50:00,78.4,72.1,29.86,ENE,68,11.0,12.0,81,0.00,,,0.00,meteohub,2013-10-04 02:50:00,
2013-10-03 21:55:00,78.3,72.0,29.86,East,90,7.0,12.0,81,0.00,,,0.00,meteohub,2013-10-04 02:55:00,
2013-10-03 22:01:00,78.3,72.3,29.86,East,90,8.0,12.0,82,0.00,,,0.00,meteohub,2013-10-04 03:01:00,
2013-10-03 22:06:00,78.1,72.1,29.86,East,90,11.0,12.0,82,0.00,,,0.00,meteohub,2013-10-04 03:06:00,
2013-10-03 22:11:00,78.1,72.1,29.86,East,90,10.0,11.0,82,0.00,,,0.00,meteohub,2013-10-04 03:11:00,
2013-10-03 22:16:00,77.9,72.0,29.87,East,90,9.0,11.0,82,0.00,,,0.00,meteohub,2013-10-04 03:16:00,
2013-10-03 22:22:00,77.9,72.0,29.87,East,90,7.0,11.0,82,0.00,,,0.00,meteohub,2013-10-04 03:22:00,
2013-10-03 22:27:00,77.7,72.1,29.87,East,90,9.0,11.0,83,0.00,,,0.00,meteohub,2013-10-04 03:27:00,
2013-10-03 22:32:00,77.9,72.3,29.87,East,90,8.0,11.0,83,0.00,,,0.00,meteohub,2013-10-04 03:32:00,
2013-10-03 22:37:00,77.7,72.1,29.87,East,90,12.0,12.0,83,0.00,,,0.00,meteohub,2013-10-04 03:37:00,
2013-10-03 22:43:00,77.7,72.1,29.87,East,90,13.0,13.0,83,0.00,,,0.00,meteohub,2013-10-04 03:43:00,
2013-10-03 22:48:00,77.7,72.1,29.88,East,90,10.0,13.0,83,0.00,,,0.00,meteohub,2013-10-04 03:48:00,
2013-10-03 22:53:00,77.5,72.0,29.87,East,90,6.0,13.0,83,0.00,,,0.00,meteohub,2013-10-04 03:53:00,
2013-10-03 22:59:00,77.7,72.1,29.87,NE,45,11.0,13.0,83,0.00,,,0.00,meteohub,2013-10-04 03:59:00,
2013-10-03 23:31:00,77.9,72.0,29.88,East,90,9.0,12.0,82,0.00,,,0.00,meteohub,2013-10-04 04:31:00,
2013-10-03 23:32:00,77.9,72.0,29.88,ENE,68,11.0,12.0,82,0.00,,,0.00,meteohub,2013-10-04 04:32:00,
2013-10-03 23:35:00,78.1,72.1,29.88,East,90,10.0,12.0,82,0.00,,,0.00,meteohub,2013-10-04 04:35:00,
2013-10-03 23:36:00,78.1,72.1,29.88,East,90,8.0,12.0,82,0.00,,,0.00,meteohub,2013-10-04 04:36:00,
2013-10-03 23:38:00,77.9,72.0,29.88,NE,45,8.0,12.0,82,0.00,,,0.00,meteohub,2013-10-04 04:38:00,
2013-10-03 23:40:00,77.9,72.0,29.88,NE,45,11.0,12.0,82,0.00,,,0.00,meteohub,2013-10-04 04:40:00,
2013-10-03 23:43:00,77.9,72.0,29.88,East,90,9.0,12.0,82,0.00,,,0.00,meteohub,2013-10-04 04:43:00,
2013-10-03 23:45:00,77.9,72.0,29.88,East,90,11.0,13.0,82,0.00,,,0.00,meteohub,2013-10-04 04:45:00,
2013-10-03 23:46:00,77.9,72.0,29.88,East,90,11.0,13.0,82,0.00,,,0.00,meteohub,2013-10-04 04:46:00,
2013-10-03 23:52:00,77.9,72.0,29.88,East,90,11.0,13.0,82,0.00,,,0.00,meteohub,2013-10-04 04:52:00,
2013-10-03 23:56:00,77.5,71.6,29.88,NE,45,7.0,13.0,82,0.00,,,0.00,meteohub,2013-10-04 04:56:00,
2013-10-03 23:57:00,77.5,71.6,29.88,ENE,68,8.0,13.0,82,0.00,,,0.00,meteohub,2013-10-04 04:57:00,